﻿測定場所 (Monitoring sites),日付 (Measurement date),時間 (Measurement time),線量率 最大値 (max) μGy/h,線量率 最小値 (min) μGy/h,線量率 平均値 (average) μGy/h,
小平 (Kodaira),2012-03-25,23:01～24:00,0.0441,0.0375,0.0407,
小平 (Kodaira),2012-03-25,22:01～23:00,0.0448,0.0372,0.0407,
小平 (Kodaira),2012-03-25,21:01～22:00,0.0438,0.0377,0.0407,
小平 (Kodaira),2012-03-25,20:01～21:00,0.0437,0.0375,0.0406,
小平 (Kodaira),2012-03-25,19:01～20:00,0.0440,0.0378,0.0406,
小平 (Kodaira),2012-03-25,18:01～19:00,0.0442,0.0370,0.0408,
小平 (Kodaira),2012-03-25,17:01～18:00,0.0439,0.0373,0.0405,
小平 (Kodaira),2012-03-25,16:01～17:00,0.0431,0.0374,0.0405,
小平 (Kodaira),2012-03-25,15:01～16:00,0.0429,0.0370,0.0406,
小平 (Kodaira),2012-03-25,14:01～15:00,0.0446,0.0372,0.0406,
小平 (Kodaira),2012-03-25,13:01～14:00,0.0440,0.0376,0.0409,
小平 (Kodaira),2012-03-25,12:01～13:00,0.0424,0.0371,0.0400,
小平 (Kodaira),2012-03-25,11:01～12:00,0.0443,0.0373,0.0406,
小平 (Kodaira),2012-03-25,10:01～11:00,0.0434,0.0368,0.0409,
小平 (Kodaira),2012-03-25,09:01～10:00,0.0448,0.0370,0.0410,
小平 (Kodaira),2012-03-25,08:01～09:00,0.0443,0.0383,0.0416,
小平 (Kodaira),2012-03-25,07:01～08:00,0.0450,0.0369,0.0421,
小平 (Kodaira),2012-03-25,06:01～07:00,0.0442,0.0392,0.0415,
小平 (Kodaira),2012-03-25,05:01～06:00,0.0433,0.0380,0.0407,
小平 (Kodaira),2012-03-25,04:01～05:00,0.0445,0.0383,0.0410,
小平 (Kodaira),2012-03-25,03:01～04:00,0.0448,0.0382,0.0413,
小平 (Kodaira),2012-03-25,02:01～03:00,0.0445,0.0382,0.0406,
小平 (Kodaira),2012-03-25,01:01～02:00,0.0437,0.0373,0.0406,
小平 (Kodaira),2012-03-25,00:01～01:00,0.0433,0.0373,0.0406,
小平 (Kodaira),2012-03-24,23:01～24:00,0.0434,0.0374,0.0401,
小平 (Kodaira),2012-03-24,22:01～23:00,0.0432,0.0370,0.0398,
小平 (Kodaira),2012-03-24,21:01～22:00,0.0423,0.0365,0.0398,
小平 (Kodaira),2012-03-24,20:01～21:00,0.0430,0.0362,0.0399,
小平 (Kodaira),2012-03-24,19:01～20:00,0.0429,0.0370,0.0400,
小平 (Kodaira),2012-03-24,18:01～19:00,0.0438,0.0366,0.0399,
小平 (Kodaira),2012-03-24,17:01～18:00,0.0444,0.0365,0.0402,
小平 (Kodaira),2012-03-24,16:01～17:00,0.0441,0.0371,0.0408,
小平 (Kodaira),2012-03-24,15:01～16:00,0.0444,0.0387,0.0414,
小平 (Kodaira),2012-03-24,14:01～15:00,0.0448,0.0380,0.0414,
小平 (Kodaira),2012-03-24,13:01～14:00,0.0461,0.0387,0.0417,
小平 (Kodaira),2012-03-24,12:01～13:00,0.0471,0.0393,0.0429,
小平 (Kodaira),2012-03-24,11:01～12:00,0.0469,0.0388,0.0428,
小平 (Kodaira),2012-03-24,10:01～11:00,0.0459,0.0386,0.0424,
小平 (Kodaira),2012-03-24,09:01～10:00,0.0439,0.0387,0.0415,
小平 (Kodaira),2012-03-24,08:01～09:00,0.0433,0.0374,0.0409,
小平 (Kodaira),2012-03-24,07:01～08:00,0.0440,0.0381,0.0403,
小平 (Kodaira),2012-03-24,06:01～07:00,0.0450,0.0369,0.0403,
小平 (Kodaira),2012-03-24,05:01～06:00,0.0434,0.0374,0.0401,
小平 (Kodaira),2012-03-24,04:01～05:00,0.0429,0.0372,0.0404,
小平 (Kodaira),2012-03-24,03:01～04:00,0.0443,0.0374,0.0408,
小平 (Kodaira),2012-03-24,02:01～03:00,0.0482,0.0395,0.0436,
小平 (Kodaira),2012-03-24,01:01～02:00,0.0559,0.0448,0.0497,
小平 (Kodaira),2012-03-24,00:01～01:00,0.0579,0.0491,0.0528,
小平 (Kodaira),2012-03-23,23:01～24:00,0.0553,0.0492,0.0522,
小平 (Kodaira),2012-03-23,22:01～23:00,0.0544,0.0484,0.0513,
小平 (Kodaira),2012-03-23,21:01～22:00,0.0548,0.0455,0.0493,
小平 (Kodaira),2012-03-23,20:01～21:00,0.0531,0.0463,0.0499,
小平 (Kodaira),2012-03-23,19:01～20:00,0.0523,0.0440,0.0484,
小平 (Kodaira),2012-03-23,18:01～19:00,0.0513,0.0441,0.0474,
小平 (Kodaira),2012-03-23,17:01～18:00,0.0511,0.0435,0.0473,
小平 (Kodaira),2012-03-23,16:01～17:00,0.0499,0.0437,0.0471,
小平 (Kodaira),2012-03-23,15:01～16:00,0.0482,0.0411,0.0452,
小平 (Kodaira),2012-03-23,14:01～15:00,0.0582,0.0420,0.0467,
小平 (Kodaira),2012-03-23,13:01～14:00,0.0512,0.0432,0.0469,
小平 (Kodaira),2012-03-23,12:01～13:00,0.0482,0.0430,0.0452,
小平 (Kodaira),2012-03-23,11:01～12:00,0.0489,0.0390,0.0433,
小平 (Kodaira),2012-03-23,10:01～11:00,0.0451,0.0388,0.0419,
小平 (Kodaira),2012-03-23,09:01～10:00,0.0442,0.0387,0.0414,
小平 (Kodaira),2012-03-23,08:01～09:00,0.0446,0.0387,0.0413,
小平 (Kodaira),2012-03-23,07:01～08:00,0.0441,0.0382,0.0412,
小平 (Kodaira),2012-03-23,06:01～07:00,0.0442,0.0381,0.0407,
小平 (Kodaira),2012-03-23,05:01～06:00,0.0437,0.0371,0.0404,
小平 (Kodaira),2012-03-23,04:01～05:00,0.0442,0.0375,0.0405,
小平 (Kodaira),2012-03-23,03:01～04:00,0.0459,0.0386,0.0417,
小平 (Kodaira),2012-03-23,02:01～03:00,0.0441,0.0380,0.0416,
小平 (Kodaira),2012-03-23,01:01～02:00,0.0444,0.0376,0.0406,
小平 (Kodaira),2012-03-23,00:01～01:00,0.0438,0.0370,0.0403,
小平 (Kodaira),2012-03-22,23:01～24:00,0.0428,0.0377,0.0403,
小平 (Kodaira),2012-03-22,22:01～23:00,0.0428,0.0372,0.0400,
小平 (Kodaira),2012-03-22,21:01～22:00,0.0435,0.0369,0.0400,
小平 (Kodaira),2012-03-22,20:01～21:00,0.0430,0.0364,0.0404,
小平 (Kodaira),2012-03-22,19:01～20:00,0.0442,0.0374,0.0406,
小平 (Kodaira),2012-03-22,18:01～19:00,0.0446,0.0371,0.0409,
小平 (Kodaira),2012-03-22,17:01～18:00,0.0450,0.0385,0.0409,
小平 (Kodaira),2012-03-22,16:01～17:00,0.0453,0.0372,0.0410,
小平 (Kodaira),2012-03-22,15:01～16:00,0.0446,0.0374,0.0406,
小平 (Kodaira),2012-03-22,14:01～15:00,0.0437,0.0377,0.0411,
小平 (Kodaira),2012-03-22,13:01～14:00,0.0432,0.0384,0.0411,
小平 (Kodaira),2012-03-22,12:01～13:00,0.0445,0.0381,0.0414,
小平 (Kodaira),2012-03-22,11:01～12:00,0.0442,0.0383,0.0413,
小平 (Kodaira),2012-03-22,10:01～11:00,0.0444,0.0380,0.0413,
小平 (Kodaira),2012-03-22,09:01～10:00,0.0455,0.0377,0.0418,
小平 (Kodaira),2012-03-22,08:01～09:00,0.0460,0.0381,0.0423,
小平 (Kodaira),2012-03-22,07:01～08:00,0.0458,0.0390,0.0421,
小平 (Kodaira),2012-03-22,06:01～07:00,0.0470,0.0395,0.0425,
小平 (Kodaira),2012-03-22,05:01～06:00,0.0460,0.0403,0.0427,
小平 (Kodaira),2012-03-22,04:01～05:00,0.0452,0.0386,0.0421,
小平 (Kodaira),2012-03-22,03:01～04:00,0.0447,0.0393,0.0420,
小平 (Kodaira),2012-03-22,02:01～03:00,0.0446,0.0381,0.0417,
小平 (Kodaira),2012-03-22,01:01～02:00,0.0442,0.0379,0.0416,
小平 (Kodaira),2012-03-22,00:01～01:00,0.0447,0.0370,0.0409,
小平 (Kodaira),2012-03-21,23:01～24:00,0.0450,0.0374,0.0409,
小平 (Kodaira),2012-03-21,22:01～23:00,0.0431,0.0370,0.0402,
小平 (Kodaira),2012-03-21,21:01～22:00,0.0436,0.0368,0.0403,
小平 (Kodaira),2012-03-21,20:01～21:00,0.0430,0.0369,0.0399,
小平 (Kodaira),2012-03-21,19:01～20:00,0.0445,0.0369,0.0402,
小平 (Kodaira),2012-03-21,18:01～19:00,0.0423,0.0369,0.0399,
小平 (Kodaira),2012-03-21,17:01～18:00,0.0428,0.0367,0.0398,
小平 (Kodaira),2012-03-21,16:01～17:00,0.0441,0.0369,0.0400,
小平 (Kodaira),2012-03-21,15:01～16:00,0.0430,0.0376,0.0399,
小平 (Kodaira),2012-03-21,14:01～15:00,0.0436,0.0377,0.0404,
小平 (Kodaira),2012-03-21,13:01～14:00,0.0431,0.0365,0.0403,
小平 (Kodaira),2012-03-21,12:01～13:00,0.0439,0.0377,0.0407,
小平 (Kodaira),2012-03-21,11:01～12:00,0.0424,0.0383,0.0404,
小平 (Kodaira),2012-03-21,10:01～11:00,0.0442,0.0377,0.0409,
小平 (Kodaira),2012-03-21,09:01～10:00,0.0445,0.0376,0.0408,
小平 (Kodaira),2012-03-21,08:01～09:00,0.0436,0.0373,0.0407,
小平 (Kodaira),2012-03-21,07:01～08:00,0.0427,0.0378,0.0407,
小平 (Kodaira),2012-03-21,06:01～07:00,0.0441,0.0372,0.0406,
小平 (Kodaira),2012-03-21,05:01～06:00,0.0435,0.0379,0.0405,
小平 (Kodaira),2012-03-21,04:01～05:00,0.0434,0.0371,0.0405,
小平 (Kodaira),2012-03-21,03:01～04:00,0.0434,0.0371,0.0408,
小平 (Kodaira),2012-03-21,02:01～03:00,0.0437,0.0367,0.0406,
小平 (Kodaira),2012-03-21,01:01～02:00,0.0424,0.0365,0.0400,
小平 (Kodaira),2012-03-21,00:01～01:00,0.0433,0.0366,0.0402,
小平 (Kodaira),2012-03-20,23:01～24:00,0.0425,0.0371,0.0401,
小平 (Kodaira),2012-03-20,22:01～23:00,0.0435,0.0371,0.0403,
小平 (Kodaira),2012-03-20,21:01～22:00,0.0435,0.0378,0.0402,
小平 (Kodaira),2012-03-20,20:01～21:00,0.0450,0.0367,0.0403,
小平 (Kodaira),2012-03-20,19:01～20:00,0.0435,0.0366,0.0400,
小平 (Kodaira),2012-03-20,18:01～19:00,0.0440,0.0368,0.0401,
小平 (Kodaira),2012-03-20,17:01～18:00,0.0428,0.0375,0.0400,
小平 (Kodaira),2012-03-20,16:01～17:00,0.0433,0.0370,0.0402,
小平 (Kodaira),2012-03-20,15:01～16:00,0.0436,0.0368,0.0400,
小平 (Kodaira),2012-03-20,14:01～15:00,0.0425,0.0368,0.0398,
小平 (Kodaira),2012-03-20,13:01～14:00,0.0437,0.0370,0.0401,
小平 (Kodaira),2012-03-20,12:01～13:00,0.0438,0.0367,0.0408,
小平 (Kodaira),2012-03-20,11:01～12:00,0.0437,0.0359,0.0406,
小平 (Kodaira),2012-03-20,10:01～11:00,0.0428,0.0363,0.0401,
小平 (Kodaira),2012-03-20,09:01～10:00,0.0438,0.0369,0.0406,
小平 (Kodaira),2012-03-20,08:01～09:00,0.0435,0.0370,0.0403,
小平 (Kodaira),2012-03-20,07:01～08:00,0.0438,0.0365,0.0405,
小平 (Kodaira),2012-03-20,06:01～07:00,0.0443,0.0369,0.0404,
小平 (Kodaira),2012-03-20,05:01～06:00,0.0447,0.0371,0.0405,
小平 (Kodaira),2012-03-20,04:01～05:00,0.0438,0.0369,0.0401,
小平 (Kodaira),2012-03-20,03:01～04:00,0.0432,0.0375,0.0404,
小平 (Kodaira),2012-03-20,02:01～03:00,0.0433,0.0368,0.0403,
小平 (Kodaira),2012-03-20,01:01～02:00,0.0439,0.0372,0.0402,
小平 (Kodaira),2012-03-20,00:01～01:00,0.0432,0.0371,0.0402,
小平 (Kodaira),2012-03-19,23:01～24:00,0.0427,0.0370,0.0400,
小平 (Kodaira),2012-03-19,22:01～23:00,0.0442,0.0367,0.0398,
小平 (Kodaira),2012-03-19,21:01～22:00,0.0434,0.0361,0.0399,
小平 (Kodaira),2012-03-19,20:01～21:00,0.0432,0.0366,0.0396,
小平 (Kodaira),2012-03-19,19:01～20:00,0.0437,0.0371,0.0398,
小平 (Kodaira),2012-03-19,18:01～19:00,0.0424,0.0365,0.0394,
小平 (Kodaira),2012-03-19,17:01～18:00,0.0422,0.0365,0.0395,
小平 (Kodaira),2012-03-19,16:01～17:00,0.0421,0.0366,0.0395,
小平 (Kodaira),2012-03-19,15:01～16:00,0.0441,0.0369,0.0398,
小平 (Kodaira),2012-03-19,14:01～15:00,0.0434,0.0359,0.0402,
小平 (Kodaira),2012-03-19,13:01～14:00,0.0433,0.0370,0.0400,
小平 (Kodaira),2012-03-19,12:01～13:00,0.0437,0.0376,0.0405,
小平 (Kodaira),2012-03-19,11:01～12:00,0.0442,0.0372,0.0405,
小平 (Kodaira),2012-03-19,10:01～11:00,0.0438,0.0377,0.0404,
小平 (Kodaira),2012-03-19,09:01～10:00,0.0437,0.0363,0.0401,
小平 (Kodaira),2012-03-19,08:01～09:00,0.0426,0.0370,0.0401,
小平 (Kodaira),2012-03-19,07:01～08:00,0.0431,0.0372,0.0398,
小平 (Kodaira),2012-03-19,06:01～07:00,0.0428,0.0373,0.0401,
小平 (Kodaira),2012-03-19,05:01～06:00,0.0428,0.0373,0.0399,
小平 (Kodaira),2012-03-19,04:01～05:00,0.0440,0.0369,0.0405,
小平 (Kodaira),2012-03-19,03:01～04:00,0.0439,0.0375,0.0411,
小平 (Kodaira),2012-03-19,02:01～03:00,0.0448,0.0372,0.0409,
小平 (Kodaira),2012-03-19,01:01～02:00,0.0434,0.0371,0.0401,
小平 (Kodaira),2012-03-19,00:01～01:00,0.0441,0.0371,0.0405,
